This is the latest recevied weather packets stored in our database for station/object IK2ILW-6. If no packets are shown the sender has not sent any weather packets the latest 1 day(s).
| Time | Temp. | Humidity | Pressure | Rain* | Wind** | Luminosity | Snow |
|---|---|---|---|---|---|---|---|
| 1777994500 | 3.89° C | 96% | 1013.1 hPa | 4.06 mm | 1.34 m/s, 84° | 88 W/m² | - |
| 1777994184 | 3.89° C | 96% | 1013 hPa | 4.06 mm | 3.13 m/s, 104° | 111 W/m² | - |
| 1777993890 | 3.89° C | 96% | 1013 hPa | 4.06 mm | 4.92 m/s, 92° | 107 W/m² | - |
| 1777993594 | 4.44° C | 96% | 1013 hPa | 4.06 mm | 3.13 m/s, 63° | 70 W/m² | - |
| 1777993283 | 3.89° C | 96% | 1013.1 hPa | 4.06 mm | 3.58 m/s, 132° | 88 W/m² | - |
| 1777992987 | 3.89° C | 96% | 1013 hPa | 4.06 mm | 3.58 m/s, 129° | 132 W/m² | - |
| 1777992692 | 3.89° C | 96% | 1013.1 hPa | 4.06 mm | 2.24 m/s, 61° | 162 W/m² | - |
| 1777992394 | 3.89° C | 96% | 1013.1 hPa | 3.05 mm | 1.79 m/s, 92° | 178 W/m² | - |
| 1777992100 | 3.89° C | 96% | 1013.1 hPa | 3.05 mm | 1.34 m/s, 117° | 134 W/m² | - |
| 1777991800 | 3.89° C | 96% | 1013.1 hPa | 2.03 mm | 1.34 m/s, 136° | 84 W/m² | - |
| 1777991484 | 3.89° C | 96% | 1013.1 hPa | 2.03 mm | 1.34 m/s, 154° | 74 W/m² | - |
| 1777991188 | 3.89° C | 96% | 1013.1 hPa | 1.02 mm | 1.79 m/s, 171° | 72 W/m² | - |
| 1777990892 | 3.89° C | 96% | 1013.1 hPa | 1.02 mm | 3.13 m/s, 128° | 56 W/m² | - |
| 1777990597 | 3.89° C | 96% | 1013.1 hPa | 1.02 mm | 2.24 m/s, 64° | 54 W/m² | - |
| 1777990286 | 3.89° C | 96% | 1013.1 hPa | 1.02 mm | 2.24 m/s, 135° | 49 W/m² | - |
| 1777989991 | 3.89° C | 96% | 1013.1 hPa | 1.02 mm | 0.89 m/s, 25° | 58 W/m² | - |
| 1777989696 | 3.89° C | 96% | 1013.1 hPa | 1.02 mm | 2.24 m/s, 111° | 58 W/m² | - |
| 1777989400 | 3.89° C | 96% | 1013 hPa | 1.02 mm | 3.13 m/s, 166° | 65 W/m² | - |
| 1777989084 | 3.89° C | 96% | 1013 hPa | 1.02 mm | 3.13 m/s, 178° | 76 W/m² | - |
| 1777988788 | 3.89° C | 96% | 1013 hPa | 1.02 mm | 2.24 m/s, 69° | 84 W/m² | - |
| 1777988493 | 3.89° C | 96% | 1013.1 hPa | 1.02 mm | 2.24 m/s, 294° | 76 W/m² | - |
| 1777988194 | 3.89° C | 96% | 1013.1 hPa | 1.02 mm | 3.13 m/s, 59° | 113 W/m² | - |
| 1777987898 | 3.89° C | 95% | 1013 hPa | 1.02 mm | 2.68 m/s, 84° | 121 W/m² | - |
| 1777987585 | 3.33° C | 95% | 1013.1 hPa | 1.02 mm | 3.13 m/s, 152° | 102 W/m² | - |
| 1777987289 | 3.33° C | 95% | 1013.1 hPa | 2.03 mm | 4.92 m/s, 80° | 114 W/m² | - |
* Rain latest hour (hover to see other rain measurements)
** Current wind speed in m/s (hover to see current wind gust speed)